Location: Bay Harbour
(38.2612°N, 75.2555°W)
Time: 01:18:47
(UTC+00:00)

Cosmos 2369 - Pass Details

Date: 29 October 2020
Orbit: 841 x 854 km, 71.0° (Epoch: 02 December)

Event Time Altitude Azimuth Distance (km) Brightness Sun altitude
Rises 23:30:00 0° 204° (SSW) 3,407 7.2 -17.3°
Reaches altitude 10° 23:32:27 10° 205° (SSW) 2,474 6.5 -17.8°
Maximum altitude 23:38:09 79° 292° (WNW) 870 3.8 -18.9°
Drops below altitude 10° 23:43:52 10° 20° (NNE) 2,482 5.9 -20.1°
Enters shadow 23:45:15 - 21° (NNE) 3,012 6.3 -20.3°
